FW4741 Weather Reports


time (UTC)temp
C
wind
direction
speed
KPH
gust
KPH
rain 1hr
cm
rain 24hr
cm
rain mn
cm
humidity
%
barometer
mb
20260504005603 26 77 3.2 9.7 0.00 0.00 0.00 40 1021.0
20260504003604 27 77 3.2 9.7 0.00 0.00 0.00 38 1020.7
20260504002603 27 77 3.2 9.7 0.00 0.00 0.00 38 1020.7
20260504002103 27 77 3.2 9.7 0.00 0.00 0.00 39 1020.6
20260504001603 27 77 3.2 9.7 0.00 0.00 0.00 39 1020.5
20260504000603 27 77 3.2 9.7 0.00 0.00 0.00 39 1020.5
20260504000104 27 77 3.2 9.7 0.00 0.00 0.00 39 1020.5
20260503235103 28 77 3.2 9.7 0.00 0.00 0.00 40 1020.3
20260503234604 28 77 3.2 9.7 0.00 0.00 0.00 40 1020.2
20260503234104 28 77 3.2 9.7 0.00 0.00 0.00 40 1020.3
20260503233603 28 77 3.2 9.7 0.00 0.00 0.00 39 1020.2
20260503233104 28 77 3.2 9.7 0.00 0.00 0.00 40 1020.2
20260503232603 28 77 3.2 9.7 0.00 0.00 0.00 40 1020.2
20260503232104 28 77 3.2 9.7 0.00 0.00 0.00 40 1020.2
20260503231604 28 77 3.2 9.7 0.00 0.00 0.00 40 1020.2
20260503231103 28 77 3.2 9.7 0.00 0.00 0.00 41 1020.1
20260503230604 28 77 3.2 9.7 0.00 0.00 0.00 40 1020.1
20260503225604 27 77 3.2 9.7 0.00 0.00 0.00 39 1020.2
20260503225103 27 77 3.2 9.7 0.00 0.00 0.00 40 1020.2
20260503224104 27 77 3.2 9.7 0.00 0.00 0.00 41 1020.3
20260503223103 27 77 3.2 9.7 0.00 0.00 0.00 43 1020.4
20260503222603 27 77 3.2 9.7 0.00 0.00 0.00 43 1020.5
20260503222104 27 77 3.2 9.7 0.00 0.00 0.00 43 1020.6
20260503221103 27 77 3.2 9.7 0.00 0.00 0.00 43 1020.7
20260503220604 27 77 3.2 9.7 0.00 0.00 0.00 42 1020.7
20260503220103 27 77 3.2 9.7 0.00 0.00 0.00 42 1020.8
20260503215603 27 77 3.2 9.7 0.00 0.00 0.00 43 1020.8
20260503215103 27 77 3.2 9.7 0.00 0.00 0.00 43 1020.7
20260503214603 27 77 3.2 9.7 0.00 0.00 0.00 43 1020.8
20260503214103 27 77 3.2 9.7 0.00 0.00 0.00 43 1020.9
20260503213604 27 77 3.2 9.7 0.00 0.00 0.00 42 1021.0
20260503213103 27 77 3.2 9.7 0.00 0.00 0.00 41 1020.9
20260503212603 27 77 3.2 9.7 0.00 0.00 0.00 42 1020.8
20260503212103 27 77 3.2 9.7 0.00 0.00 0.00 42 1020.9
20260503211103 27 77 3.2 9.7 0.00 0.00 0.00 43 1020.8
20260503210603 27 77 3.2 9.7 0.00 0.00 0.00 43 1020.8
20260503210104 27 77 3.2 9.7 0.00 0.00 0.00 42 1020.9
20260503203603 27 77 3.2 9.7 0.00 0.00 0.00 42 1021.3
20260503203103 28 77 3.2 9.7 0.00 0.00 0.00 41 1021.3
20260503202603 28 77 3.2 9.7 0.00 0.00 0.00 41 1021.3
20260503202104 27 77 3.2 9.7 0.00 0.00 0.00 42 1021.4
20260503201104 27 77 3.2 9.7 0.00 0.00 0.00 43 1021.5
20260503200104 27 77 3.2 9.7 0.00 0.00 0.00 43 1021.6
20260503195604 27 77 3.2 9.7 0.00 0.00 0.00 43 1021.8
20260503194603 27 77 3.2 9.7 0.00 0.00 0.00 45 1021.8
20260503194103 27 77 3.2 9.7 0.00 0.00 0.00 45 1021.9
20260503193603 27 77 3.2 9.7 0.00 0.00 0.00 45 1022.0
20260503193104 27 77 3.2 9.7 0.00 0.00 0.00 44 1022.1
20260503192603 27 77 3.2 9.7 0.00 0.00 0.00 45 1022.2
20260503192103 27 77 3.2 9.7 0.00 0.00 0.00 44 1022.2
20260503191604 27 77 3.2 9.7 0.00 0.00 0.00 45 1022.2
20260503191103 27 77 3.2 9.7 0.00 0.00 0.00 45 1022.3
20260503190604 27 77 3.2 9.7 0.00 0.00 0.00 45 1022.4
20260503190104 26 77 3.2 9.7 0.00 0.00 0.00 45 1022.4
20260503185603 26 77 3.2 9.7 0.00 0.00 0.00 46 1022.5
20260503185104 26 77 3.2 9.7 0.00 0.00 0.00 47 1022.5
20260503184603 26 77 3.2 9.7 0.00 0.00 0.00 47 1022.6
20260503184104 26 77 3.2 9.7 0.00 0.00 0.00 47 1022.7
20260503183104 26 77 3.2 9.7 0.00 0.00 0.00 47 1022.8
20260503182604 26 77 3.2 9.7 0.00 0.00 0.00 47 1022.8
20260503181604 26 77 3.2 9.7 0.00 0.00 0.00 49 1023.0
20260503181103 26 77 3.2 9.7 0.00 0.00 0.00 49 1023.0
20260503180103 26 77 3.2 9.7 0.00 0.00 0.00 49 1023.0
20260503175604 26 77 3.2 9.7 0.00 0.00 0.00 49 1023.1
20260503175103 26 77 3.2 9.7 0.00 0.00 0.00 49 1023.1
20260503173604 25 77 3.2 9.7 0.00 0.00 0.00 48 1023.2
20260503173103 25 77 3.2 9.7 0.00 0.00 0.00 50 1023.3
20260503172604 25 77 3.2 9.7 0.00 0.00 0.00 50 1023.3
20260503171604 25 77 3.2 9.7 0.00 0.00 0.00 51 1023.5
20260503171104 25 77 3.2 9.7 0.00 0.00 0.00 49 1023.6
20260503170603 25 77 3.2 9.7 0.00 0.00 0.00 50 1023.6
20260503170104 25 77 3.2 9.7 0.00 0.00 0.00 50 1023.7
20260503150603 22 77 3.2 9.7 0.00 0.00 0.00 58 1024.2
20260503150104 21 77 3.2 9.7 0.00 0.00 0.00 59 1024.1
20260503140104 17 77 3.2 9.7 0.00 0.00 0.00 66 1023.8
20260503131104 16 77 3.2 9.7 0.00 0.00 0.00 71 1023.3
20260503130603 16 77 3.2 9.7 0.00 0.00 0.00 72 1023.3
20260503130104 16 77 3.2 9.7 0.00 0.00 0.00 72 1023.2
20260503110603 15 77 3.2 9.7 0.00 0.00 0.00 73 1022.3
20260503081603 17 77 3.2 9.7 0.00 0.00 0.00 64 1022.0
20260503081104 17 77 3.2 9.7 0.00 0.00 0.00 65 1022.0
20260503080603 17 77 3.2 9.7 0.00 0.00 0.00 65 1022.1
20260503072604 18 77 3.2 9.7 0.00 0.00 0.00 64 1021.9
20260503072103 17 77 3.2 9.7 0.00 0.00 0.00 66 1022.0
20260503071603 17 77 3.2 9.7 0.00 0.00 0.00 67 1022.0
20260503071103 17 77 3.2 9.7 0.00 0.00 0.00 67 1022.0
20260503070603 17 77 3.2 9.7 0.00 0.00 0.00 68 1022.1
20260503070103 17 77 3.2 9.7 0.00 0.00 0.00 69 1022.1
20260503060103 18 77 3.2 9.7 0.00 0.00 0.00 64 1022.4
20260503054604 19 77 3.2 9.7 0.00 0.00 0.00 61 1022.3
20260503053103 19 77 3.2 9.7 0.00 0.00 0.00 61 1022.2
20260503052603 19 77 3.2 9.7 0.00 0.00 0.00 61 1022.2
20260503052104 19 77 3.2 9.7 0.00 0.00 0.00 61 1022.3
20260503051603 19 77 3.2 9.7 0.00 0.00 0.00 61 1022.3
20260503051103 19 77 3.2 9.7 0.00 0.00 0.00 60 1022.3
20260503050604 19 77 3.2 9.7 0.00 0.00 0.00 60 1022.2
20260503045604 20 77 3.2 9.7 0.00 0.00 0.00 59 1022.1
20260503044604 20 77 3.2 9.7 0.00 0.00 0.00 55 1022.1
20260503044104 20 77 3.2 9.7 0.00 0.00 0.00 54 1022.0
20260503043604 20 77 3.2 9.7 0.00 0.00 0.00 56 1022.0
20260503043103 20 77 3.2 9.7 0.00 0.00 0.00 56 1022.0
20260503042604 20 77 3.2 9.7 0.00 0.00 0.00 57 1022.0
20260503042103 20 77 3.2 9.7 0.00 0.00 0.00 57 1022.0
20260503041604 20 77 3.2 9.7 0.00 0.00 0.00 58 1022.0
20260503041104 20 77 3.2 9.7 0.00 0.00 0.00 57 1021.8
20260503040604 21 77 3.2 9.7 0.00 0.00 0.00 56 1021.7
20260503040104 21 77 3.2 9.7 0.00 0.00 0.00 55 1021.7
20260503035604 21 77 3.2 9.7 0.00 0.00 0.00 55 1021.6
20260503035104 21 77 3.2 9.7 0.00 0.00 0.00 54 1021.5
20260503034103 21 77 3.2 9.7 0.00 0.00 0.00 53 1021.4
20260503033604 21 77 3.2 9.7 0.00 0.00 0.00 53 1021.4
20260503032604 21 77 3.2 9.7 0.00 0.00 0.00 53 1021.3
20260503031603 21 77 3.2 9.7 0.00 0.00 0.00 53 1021.3
20260503030604 21 77 3.2 9.7 0.00 0.00 0.00 53 1021.1
20260503030103 21 77 3.2 9.7 0.00 0.00 0.00 52 1021.0
20260503025603 21 77 3.2 9.7 0.00 0.00 0.00 53 1020.9
20260503025103 21 77 3.2 9.7 0.00 0.00 0.00 53 1020.9
20260503024603 21 77 3.2 9.7 0.00 0.00 0.00 53 1020.8
20260503024104 22 77 3.2 9.7 0.00 0.00 0.00 53 1020.8
20260503023604 22 77 3.2 9.7 0.00 0.00 0.00 53 1020.8
20260503023104 22 77 3.2 9.7 0.00 0.00 0.00 53 1020.8
20260503022604 22 77 3.2 9.7 0.00 0.00 0.00 52 1020.7
20260503022103 23 77 3.2 9.7 0.00 0.00 0.00 52 1020.7
20260503020603 24 77 3.2 9.7 0.00 0.00 0.00 47 1020.6
20260503015604 25 77 3.2 9.7 0.00 0.00 0.00 45 1020.4
20260503015104 25 77 3.2 9.7 0.00 0.00 0.00 43 1020.3
20260503014604 25 77 3.2 9.7 0.00 0.00 0.00 43 1020.3
20260503014103 26 77 3.2 9.7 0.00 0.00 0.00 43 1020.2
20260503013604 26 77 3.2 9.7 0.00 0.00 0.00 43 1020.1
20260503013104 26 77 3.2 9.7 0.00 0.00 0.00 43 1020.1
20260503012103 26 77 3.2 9.7 0.00 0.00 0.00 43 1019.9
20260503011603 26 77 3.2 9.7 0.00 0.00 0.00 43 1019.8
20260503010604 26 77 3.2 9.7 0.00 0.00 0.00 44 1019.7
20260503010103 26 77 3.2 9.7 0.00 0.00 0.00 43 1019.7